Location: Kaarina
(60.4167°N, 22.4167°E)
Time: 22:59:57
(UTC+03:00)

SL-24 R/B - Pass Details

Date: 24 August 2019
Orbit: 504 x 1004 km, 97.5° (Epoch: 22 September)

Event Time Altitude Azimuth Distance (km) Brightness Sun altitude
Rises 22:51:50 0° 18° (NNE) 2,856 7.9 -11.8°
Reaches altitude 10° 22:54:12 10° 26° (NNE) 1,885 6.9 -12.0°
Maximum altitude 22:57:59 39° 96° (E) 815 4.3 -12.3°
Enters shadow 23:00:14 19° 157° (SSE) 1,276 5.1 -12.5°
